WX1N Weather Reports


time (UTC)temp
C
wind
direction
speed
KPH
gust
KPH
rain 1hr
cm
rain 24hr
cm
rain mn
cm
humidity
%
barometer
mb
20260504151002 15 0 0.0 0.0 0.00 0.00 0.00 46 1006.5
20260504150503 15 0 0.0 0.0 0.00 0.00 0.00 46 1006.6
20260504141003 15 0 0.0 0.0 0.00 0.00 0.00 50 1006.6
20260504140503 15 0 0.0 0.0 0.00 0.00 0.00 51 1006.7
20260504130503 13 0 0.0 0.0 0.00 0.00 0.00 56 1007.3
20260504110503 7 0 0.0 0.0 0.00 0.00 0.00 79 1008.0
20260504100503 5 0 0.0 0.0 0.00 0.00 0.00 88 1007.9
20260504082003 3 0 0.0 0.0 0.00 0.00 0.00 88 1008.1
20260504081503 3 0 0.0 0.0 0.00 0.00 0.00 88 1008.2
20260504081003 3 0 0.0 0.0 0.00 0.00 0.00 88 1008.3
20260504080503 3 0 0.0 0.0 0.00 0.00 0.00 88 1008.3
20260504050503 1 0 0.0 0.0 0.00 0.00 0.00 88 1008.6
20260504050004 1 0 0.0 0.0 0.00 0.00 0.00 87 1008.6
20260504045503 1 0 0.0 0.0 0.00 0.00 0.00 87 1008.6
20260504045003 1 0 0.0 0.0 0.00 0.00 0.00 87 1008.6
20260504044503 1 0 0.0 0.0 0.00 0.00 0.00 87 1008.7
20260504044003 1 0 0.0 0.0 0.00 0.00 0.00 87 1008.5
20260504043503 1 0 0.0 0.0 0.00 0.00 0.00 87 1008.6
20260504043003 1 0 0.0 0.0 0.00 0.00 0.00 87 1008.6
20260504042504 1 0 0.0 0.0 0.00 0.00 0.00 87 1008.7
20260504042003 0 0 0.0 0.0 0.00 0.00 0.00 87 1008.7
20260504041503 0 0 0.0 0.0 0.00 0.00 0.00 87 1008.7
20260504041003 0 0 0.0 0.0 0.00 0.00 0.00 87 1008.6
20260504040503 0 0 0.0 0.0 0.00 0.00 0.00 87 1008.6
20260504040004 0 0 0.0 0.0 0.00 0.00 0.00 87 1008.6
20260504035503 0 0 0.0 0.0 0.00 0.00 0.00 87 1008.5
20260504035003 0 0 0.0 0.0 0.00 0.00 0.00 87 1008.4
20260504034503 0 0 0.0 0.0 0.00 0.00 0.00 88 1008.6
20260504034003 0 0 0.0 0.0 0.00 0.00 0.00 88 1008.4
20260504033504 -1 0 0.0 0.0 0.00 0.00 0.00 88 1008.5
20260504033003 -1 0 0.0 0.0 0.00 0.00 0.00 88 1008.5
20260504032503 0 0 0.0 0.0 0.00 0.00 0.00 89 1008.5
20260504032003 0 0 0.0 0.0 0.00 0.00 0.00 88 1008.5
20260504031503 0 0 0.0 0.0 0.00 0.00 0.00 88 1008.5
20260504031003 0 0 0.0 0.0 0.00 0.00 0.00 88 1008.5
20260504030503 0 0 0.0 0.0 0.00 0.00 0.00 88 1008.5
20260504030004 0 0 0.0 0.0 0.00 0.00 0.00 88 1008.5
20260504025503 0 0 0.0 0.0 0.00 0.00 0.00 88 1008.5
20260504025003 0 0 0.0 0.0 0.00 0.00 0.00 88 1008.4
20260504024504 0 0 0.0 0.0 0.00 0.00 0.00 88 1008.4
20260504024003 0 0 0.0 0.0 0.00 0.00 0.00 88 1008.4
20260504023503 0 0 0.0 0.0 0.00 0.00 0.00 88 1008.4
20260504023003 0 0 0.0 0.0 0.00 0.00 0.00 88 1008.4
20260504022503 0 0 0.0 0.0 0.00 0.00 0.00 88 1008.4
20260504022004 0 0 0.0 0.0 0.00 0.00 0.00 87 1008.5
20260504021503 0 0 0.0 0.0 0.00 0.00 0.00 87 1008.5
20260504021003 0 0 0.0 0.0 0.00 0.00 0.00 87 1008.5
20260504020503 0 0 0.0 0.0 0.00 0.00 0.00 85 1008.4
20260504020003 1 0 0.0 0.0 0.00 0.00 0.00 85 1008.4
20260504015503 1 0 0.0 0.0 0.00 0.00 0.00 85 1008.3
20260504015003 1 0 0.0 0.0 0.00 0.00 0.00 85 1008.3
20260504014503 1 0 0.0 0.0 0.00 0.00 0.00 84 1008.3
20260504014003 1 0 0.0 0.0 0.00 0.00 0.00 84 1008.3
20260504013503 1 0 0.0 0.0 0.00 0.00 0.00 84 1008.2
20260504013003 1 0 0.0 0.0 0.00 0.00 0.00 83 1008.2
20260504012503 2 0 0.0 0.0 0.00 0.00 0.00 82 1008.0
20260504012004 2 0 0.0 0.0 0.00 0.00 0.00 80 1008.0
20260504011503 2 0 0.0 0.0 0.00 0.00 0.00 79 1007.8
20260504011003 2 0 0.0 0.0 0.00 0.00 0.00 79 1007.8
20260504010503 2 0 0.0 0.0 0.00 0.00 0.00 77 1007.7
20260504010003 2 0 0.0 0.0 0.00 0.00 0.00 77 1007.7
20260504005503 3 0 0.0 0.0 0.00 0.00 0.00 78 1007.6
20260504005004 3 0 0.0 0.0 0.00 0.00 0.00 77 1007.5
20260504004504 3 0 0.0 0.0 0.00 0.00 0.00 77 1007.5
20260504004003 3 0 0.0 0.0 0.00 0.00 0.00 73 1007.4
20260504003503 3 0 0.0 0.0 0.00 0.00 0.00 71 1007.4
20260504003003 4 0 0.0 0.0 0.00 0.00 0.00 70 1007.3
20260504002503 4 0 0.0 0.0 0.00 0.00 0.00 69 1007.3
20260504002003 5 0 0.0 0.0 0.00 0.00 0.00 67 1007.2
20260504001503 5 0 0.0 0.0 0.00 0.00 0.00 67 1007.1
20260504001004 5 0 0.0 0.0 0.00 0.00 0.00 67 1007.1
20260504000503 5 0 0.0 0.0 0.00 0.00 0.00 64 1007.1
20260504000004 6 0 0.0 0.0 0.00 0.00 0.00 65 1007.0
20260503235503 6 0 0.0 0.0 0.00 0.00 0.00 58 1006.9
20260503235003 7 0 0.0 0.0 0.00 0.00 0.00 59 1006.9
20260503234504 7 0 0.0 0.0 0.00 0.00 0.00 55 1006.9
20260503234003 8 0 0.0 0.0 0.00 0.00 0.00 52 1006.9
20260503233504 8 0 0.0 0.0 0.00 0.00 0.00 49 1006.9
20260503233003 9 0 0.0 0.0 0.00 0.00 0.00 46 1006.8
20260503232503 10 0 0.0 0.0 0.00 0.00 0.00 45 1006.7
20260503232004 10 0 0.0 0.0 0.00 0.00 0.00 44 1006.7
20260503231503 10 0 0.0 0.0 0.00 0.00 0.00 44 1006.7
20260503231004 10 0 0.0 0.0 0.00 0.00 0.00 43 1006.7
20260503230503 11 0 0.0 0.0 0.00 0.00 0.00 41 1006.7
20260503230003 11 0 0.0 0.0 0.00 0.00 0.00 43 1006.7
20260503225503 11 0 0.0 0.0 0.00 0.00 0.00 41 1006.7
20260503225003 11 0 0.0 0.0 0.00 0.00 0.00 41 1006.8
20260503224504 11 0 0.0 0.0 0.00 0.00 0.00 41 1006.7
20260503224003 11 0 0.0 0.0 0.00 0.00 0.00 42 1006.6
20260503223503 11 0 0.0 0.0 0.00 0.00 0.00 43 1006.7
20260503223004 11 0 0.0 0.0 0.00 0.00 0.00 43 1006.7
20260503222503 11 0 0.0 0.0 0.00 0.00 0.00 45 1006.6
20260503222003 11 0 0.0 0.0 0.00 0.00 0.00 44 1006.7
20260503221503 11 0 0.0 0.0 0.00 0.00 0.00 46 1006.6
20260503221003 11 0 0.0 0.0 0.00 0.00 0.00 45 1006.7
20260503220503 11 0 0.0 0.0 0.00 0.00 0.00 44 1006.7
20260503220003 11 0 0.0 0.0 0.00 0.00 0.00 42 1006.7
20260503215504 11 0 0.0 0.0 0.00 0.00 0.00 44 1006.6
20260503215003 11 0 0.0 0.0 0.00 0.00 0.00 45 1006.6
20260503214503 11 0 0.0 0.0 0.00 0.00 0.00 43 1006.6
20260503214003 11 0 0.0 0.0 0.00 0.00 0.00 46 1006.6
20260503213503 10 0 0.0 0.0 0.00 0.00 0.00 45 1006.5
20260503213003 10 0 0.0 0.0 0.00 0.00 0.00 43 1006.6
20260503212503 10 0 0.0 0.0 0.00 0.00 0.00 43 1006.6
20260503212003 10 0 0.0 0.0 0.00 0.00 0.00 44 1006.5
20260503211503 11 0 0.0 0.0 0.00 0.00 0.00 43 1006.5
20260503211004 11 0 0.0 0.0 0.00 0.00 0.00 43 1006.5
20260503210503 11 0 0.0 0.0 0.00 0.00 0.00 44 1006.5
20260503210004 11 0 0.0 0.0 0.00 0.00 0.00 44 1006.5
20260503205503 11 0 0.0 0.0 0.00 0.00 0.00 44 1006.5
20260503205003 10 0 0.0 0.0 0.00 0.00 0.00 44 1006.5
20260503204504 10 0 0.0 0.0 0.00 0.00 0.00 45 1006.5
20260503204003 10 0 0.0 0.0 0.00 0.00 0.00 44 1006.6
20260503203503 10 0 0.0 0.0 0.00 0.00 0.00 42 1006.5
20260503203003 10 0 0.0 0.0 0.00 0.00 0.00 43 1006.5
20260503202503 10 0 0.0 0.0 0.00 0.00 0.00 44 1006.4
20260503202003 10 0 0.0 0.0 0.00 0.00 0.00 43 1006.4
20260503201503 10 0 0.0 0.0 0.00 0.00 0.00 44 1006.4
20260503201004 10 0 0.0 0.0 0.00 0.00 0.00 46 1006.5
20260503200503 10 0 0.0 0.0 0.00 0.00 0.00 46 1006.4
20260503200004 10 0 0.0 0.0 0.00 0.00 0.00 46 1006.4
20260503195503 10 0 0.0 0.0 0.00 0.00 0.00 42 1006.5
20260503195003 10 0 0.0 0.0 0.00 0.00 0.00 45 1006.6
20260503194504 10 0 0.0 0.0 0.00 0.00 0.00 44 1006.6
20260503194003 10 0 0.0 0.0 0.00 0.00 0.00 44 1006.7
20260503193503 10 0 0.0 0.0 0.00 0.00 0.00 43 1006.7
20260503193003 10 0 0.0 0.0 0.00 0.00 0.00 43 1006.8
20260503192503 10 0 0.0 0.0 0.00 0.00 0.00 44 1006.7
20260503192004 10 0 0.0 0.0 0.00 0.00 0.00 46 1006.7
20260503191503 10 0 0.0 0.0 0.00 0.00 0.00 46 1006.7
20260503191004 10 0 0.0 0.0 0.00 0.00 0.00 42 1006.7
20260503190503 11 0 0.0 0.0 0.00 0.00 0.00 41 1006.8
20260503190003 11 0 0.0 0.0 0.00 0.00 0.00 41 1006.7
20260503185503 10 0 0.0 0.0 0.00 0.00 0.00 44 1006.8
20260503185003 10 0 0.0 0.0 0.00 0.00 0.00 42 1006.8
20260503184504 10 0 0.0 0.0 0.00 0.00 0.00 45 1006.8
20260503184003 10 0 0.0 0.0 0.00 0.00 0.00 44 1006.8
20260503183504 10 0 0.0 0.0 0.00 0.00 0.00 43 1006.8
20260503183003 10 0 0.0 0.0 0.00 0.00 0.00 43 1006.6
20260503182503 10 0 0.0 0.0 0.00 0.00 0.00 44 1006.6
20260503182003 10 0 0.0 0.0 0.00 0.00 0.00 41 1006.5
20260503181504 11 0 0.0 0.0 0.00 0.00 0.00 41 1006.4
20260503181004 11 0 0.0 0.0 0.00 0.00 0.00 39 1006.2
20260503180503 11 0 0.0 0.0 0.00 0.00 0.00 38 1006.0
20260503180004 11 0 0.0 0.0 0.00 0.00 0.00 37 1006.1
20260503175503 12 0 0.0 0.0 0.00 0.00 0.00 38 1006.1
20260503175003 12 0 0.0 0.0 0.00 0.00 0.00 40 1006.1
20260503174503 11 0 0.0 0.0 0.00 0.00 0.00 42 1006.1
20260503174003 11 0 0.0 0.0 0.00 0.00 0.00 40 1006.1
20260503173504 11 0 0.0 0.0 0.00 0.00 0.00 42 1006.1
20260503173003 11 0 0.0 0.0 0.00 0.00 0.00 43 1006.1
20260503172504 11 0 0.0 0.0 0.00 0.00 0.00 40 1006.1
20260503172004 10 0 0.0 0.0 0.00 0.00 0.00 43 1006.1
20260503171503 10 0 0.0 0.0 0.00 0.00 0.00 41 1006.2
20260503171004 11 0 0.0 0.0 0.00 0.00 0.00 42 1006.2
20260503170503 11 0 0.0 0.0 0.00 0.00 0.00 43 1006.1